New Roads False River Regiona, LA

5:45 AM CDT on July 19, 2019 (GMT -0500)
False River

Weather History for KHZR - May, 2019

Change the Weather History Date:

Tuesday, May 21, 2019

  Actual Average (KBTR) Record (KBTR)
Temperature  
Mean Temperature 80 °F -  
Max Temperature 87 °F 85 °F 95 °F (1922)
Min Temperature 73 °F 65 °F 48 °F (1894)
Cooling Degree Days 15    
Growing Degree Days 30 (Base 50)    
Moisture  
Dew Point 72 °F    
Average Humidity 77    
Maximum Humidity 100    
Minimum Humidity 49    
Precipitation  
Precipitation 0.00 in - - ()
Sea Level Pressure  
Sea Level Pressure 29.82 in    
Wind  
Wind Speed 9 mph ()    
Max Wind Speed 17 mph    
Max Gust Speed 28 mph    
Visibility 10.0 miles    
Events      
Averages and records for this station are not official NWS values.
T = Trace of Precipitation, MM = Missing Value Source: Averaged Metar Reports

Daily Weather History Graph

Daily Weather History Graph

Search for Another Location

Airport or City:

Astronomy

May. 21, 2019 Rise Set
Actual Time 6:07 AM CDT 7:57 PM CDT
Civil Twilight 5:41 AM CDT 8:24 PM CDT
Nautical Twilight 5:08 AM CDT 8:56 PM CDT
Astronomical Twilight 4:34 AM CDT 9:30 PM CDT
Moon 10:50 PM CDT (5/21) 8:26 AM CDT (5/21)
Length of Visible Light 14h 43m
Length of Day
13h 49m
Waning Gibbous, 91% of the Moon is Illuminated
May 21
Waning Gibbous
May 26
Last Quarter
Jun 3
New
Jun 10
First Quarter
Jun 17
Full

Hourly Weather History & Observations

Time (CDT) Temp. Heat Index Dew Point Humidity Pressure Visibility Wind Dir Wind Speed Gust Speed Precip Events Conditions
12:54 AM 75.2 °F - 73.4 °F 94% 29.87 in 10.0 mi North - - N/A   Overcast
1:16 AM 75.2 °F - 73.4 °F 94% 29.86 in 10.0 mi SSE 5.8 mph - N/A   Overcast
1:35 AM 75.2 °F - 73.4 °F 94% 29.85 in 10.0 mi SE 5.8 mph - N/A   Overcast
2:16 AM 75.2 °F - 73.4 °F 94% 29.85 in 10.0 mi SE 6.9 mph - N/A   Scattered Clouds
2:55 AM 75.2 °F - 73.4 °F 94% 29.84 in 10.0 mi SE 5.8 mph - N/A   Overcast
3:16 AM 75.2 °F - 73.4 °F 94% 29.84 in 10.0 mi SE 5.8 mph - N/A   Mostly Cloudy
3:36 AM 73.4 °F - 73.4 °F 100% 29.84 in 10.0 mi ESE 6.9 mph - N/A   Mostly Cloudy
3:55 AM 73.4 °F - 73.4 °F 100% 29.83 in 10.0 mi SE 6.9 mph - N/A   Scattered Clouds
4:16 AM 73.4 °F - 73.4 °F 100% 29.83 in 10.0 mi SE 6.9 mph - N/A   Scattered Clouds
4:35 AM 73.4 °F - 73.4 °F 100% 29.83 in 10.0 mi SE 9.2 mph - N/A   Scattered Clouds
4:55 AM 73.4 °F - 73.4 °F 100% 29.83 in 10.0 mi SE 6.9 mph - N/A   Mostly Cloudy
5:16 AM 73.4 °F - 73.4 °F 100% 29.82 in 10.0 mi SE 8.1 mph - N/A   Overcast
5:35 AM 73.4 °F - 73.4 °F 100% 29.82 in 10.0 mi SE 10.4 mph - N/A   Overcast
6:16 AM 73.4 °F - 73.4 °F 100% 29.82 in 10.0 mi SE 9.2 mph - N/A   Mostly Cloudy
7:16 AM 75.2 °F - 73.4 °F 94% 29.82 in 10.0 mi SE 9.2 mph - N/A   Overcast
7:55 AM 77.0 °F - 73.4 °F 89% 29.81 in 10.0 mi SE 10.4 mph 19.6 mph N/A   Overcast
8:35 AM 78.8 °F - 73.4 °F 83% 29.81 in 10.0 mi SSE 15.0 mph 24.2 mph N/A   Overcast
9:14 AM 80.6 °F 84.6 °F 71.6 °F 74% 29.81 in 10.0 mi SE 17.3 mph 27.6 mph N/A   Clear
9:55 AM 82.4 °F 87.2 °F 71.6 °F 70% 29.82 in 10.0 mi SE 17.3 mph 23.0 mph N/A   Scattered Clouds
10:55 AM 84.2 °F 88.4 °F 69.8 °F 62% 29.84 in 10.0 mi SSE 17.3 mph 24.2 mph N/A   Scattered Clouds
12:35 PM 86.0 °F 90.4 °F 69.8 °F 58% 29.84 in 10.0 mi South 11.5 mph 19.6 mph N/A   Clear
12:55 PM 87.8 °F 92.6 °F 69.8 °F 55% 29.84 in 10.0 mi SSW 13.8 mph 23.0 mph N/A   Scattered Clouds
1:17 PM 87.8 °F 92.6 °F 69.8 °F 55% 29.83 in - South 13.8 mph 19.6 mph N/A   Scattered Clouds
1:35 PM 87.8 °F 90.4 °F 66.2 °F 49% 29.83 in - South 16.1 mph 24.2 mph N/A   Scattered Clouds
1:57 PM 87.8 °F 91.4 °F 68.0 °F 52% 29.83 in 10.0 mi SSE 13.8 mph 20.7 mph N/A   Clear
2:15 PM 87.8 °F 90.4 °F 66.2 °F 49% 29.82 in - SSE 16.1 mph 23.0 mph N/A   Clear
2:55 PM 87.8 °F 90.4 °F 66.2 °F 49% 29.82 in 10.0 mi South 15.0 mph 20.7 mph N/A   Clear
3:35 PM 87.8 °F 92.6 °F 69.8 °F 55% 29.81 in 10.0 mi SSE 11.5 mph 20.7 mph N/A   Clear
3:56 PM 87.8 °F 92.6 °F 69.8 °F 55% 29.81 in 10.0 mi South 13.8 mph 21.9 mph N/A   Clear
4:16 PM 87.8 °F 92.6 °F 69.8 °F 55% 29.81 in 10.0 mi South 10.4 mph - N/A   Clear
4:36 PM 87.8 °F 93.8 °F 71.6 °F 58% 29.81 in - South 10.4 mph 16.1 mph N/A   Scattered Clouds
5:16 PM 86.0 °F 91.8 °F 71.6 °F 62% 29.79 in 10.0 mi South 15.0 mph 20.7 mph N/A   Scattered Clouds
5:35 PM 84.2 °F 89.6 °F 71.6 °F 66% 29.79 in 10.0 mi South 12.7 mph 17.3 mph N/A   Mostly Cloudy
6:15 PM 84.2 °F 89.6 °F 71.6 °F 66% 29.79 in 10.0 mi SSE 13.8 mph 20.7 mph N/A   Scattered Clouds
6:35 PM 82.4 °F 87.2 °F 71.6 °F 70% 29.79 in 10.0 mi South 10.4 mph 16.1 mph N/A   Scattered Clouds
6:57 PM 82.4 °F 87.2 °F 71.6 °F 70% 29.79 in 10.0 mi South 10.4 mph 16.1 mph N/A   Scattered Clouds
7:56 PM 80.6 °F 84.6 °F 71.6 °F 74% 29.80 in 10.0 mi South 10.4 mph 19.6 mph N/A   Scattered Clouds
8:15 PM 80.6 °F 84.6 °F 71.6 °F 74% 29.81 in 10.0 mi South 8.1 mph - N/A   Scattered Clouds
8:55 PM 80.6 °F 84.6 °F 71.6 °F 74% 29.83 in 10.0 mi South 6.9 mph - N/A   Mostly Cloudy
9:15 PM 78.8 °F - 71.6 °F 78% 29.83 in 10.0 mi South 8.1 mph - N/A   Mostly Cloudy
9:56 PM 78.8 °F - 73.4 °F 83% 29.84 in 10.0 mi South 8.1 mph - N/A   Overcast
10:16 PM 78.8 °F - 73.4 °F 83% 29.84 in 10.0 mi SSE 11.5 mph - N/A   Mostly Cloudy
10:35 PM 78.8 °F - 73.4 °F 83% 29.85 in 10.0 mi SSE 10.4 mph 16.1 mph N/A   Scattered Clouds